x

Culdrose (03809) Weather Station

11:00pm - Tue 3rd Mar 2015 All times are GMT.

  • Wind
    11mph
  • Air Temp 40°f
  • Sea Pressure 1027mb
  • Culdrose
  • Culdrose

More Historic Weather Station data

Upgrade to MSW Pro to gain access to the past 30 days of data for over 8000 Wavebouys and Weather Stations around the globe.

Join Pro

Comparision Forecast

View Surf forecast
   
Tue 03/03 11:00pm 11
mph
1027mb 40f
10:00pm 15 32 mph 1026mb 41f
9:00pm 10
mph
1025mb 41f
8:00pm 11
mph
1024mb 40f
7:00pm 11 31 mph 1024mb 40f
6:00pm 17 30 mph 1023mb 42f
5:00pm 15
mph
1022mb 43f
4:00pm 17 38 mph 1022mb 43f
3:00pm 13 45 mph 1021mb 42f
2:00pm 16 40 mph 1020mb 44f
1:00pm 18 31 mph 1020mb 46f
12:00pm 21 44 mph 1020mb 41f
11:00am 18 30 mph 1019mb 44f
10:00am 9 33 mph 1018mb 41f
9:00am 9
mph
1018mb 41f
8:00am 16
mph
1017mb 41f
7:00am 17 34 mph 1016mb 40f
6:00am 16 28 mph 1015mb 42f
5:00am 15 31 mph 1015mb 42f
4:00am 17 33 mph 1014mb 44f
3:00am 19 44 mph 1015mb 40f
2:00am 19 36 mph 1014mb 46f
1:00am 17 33 mph 1015mb 45f
12:00am 18 33 mph 1016mb 45f
Mon 03/02 11:00pm 21 36 mph 1016mb 45f
10:00pm 15 33 mph 1016mb 45f
9:00pm 17 32 mph 1016mb 45f
8:00pm 15 36 mph 1017mb 44f
7:00pm 16 30 mph 1016mb 44f
6:00pm 15 33 mph 1016mb 44f
5:00pm 18 31 mph 1016mb 45f
4:00pm 21 33 mph 1016mb 46f
3:00pm 18 41 mph 1016mb 45f
2:00pm 28 40 mph 1015mb 44f
1:00pm 11
mph
1015mb 43f
12:00pm 24 43 mph 1015mb 36f
11:00am 15 43 mph 1014mb 42f
10:00am 22 46 mph 1013mb 39f
9:00am 17 43 mph 1012mb 39f
8:00am 17 38 mph 1011mb 40f
7:00am 25 47 mph 1010mb 38f
6:00am 16 31 mph 1008mb 41f
5:00am 16 44 mph 1008mb 39f
4:00am 19 38 mph 1006mb 43f
3:00am 19 38 mph 1006mb 42f
2:00am 11 38 mph 1006mb 43f
1:00am 14 29 mph 1006mb 45f
12:00am 14 28 mph 1006mb 45f
Sun 03/01 11:00pm 11 31 mph 1005mb 43f
10:00pm 16 31 mph 1005mb 44f
9:00pm 19 43 mph 1005mb 43f
8:00pm 19 38 mph 1004mb 46f
7:00pm 19 37 mph 1003mb 46f
6:00pm 16 36 mph 1003mb 47f
5:00pm 14 25 mph 1002mb 46f
4:00pm 10 32 mph 1002mb 46f
3:00pm 23 39 mph 1003mb 43f
2:00pm 23 38 mph 1002mb 50f
1:00pm 23 31 mph 1003mb 49f
12:00pm 19 32 mph 1005mb 48f
11:00am 19 30 mph 1005mb 49f
10:00am 13 31 mph 1006mb 48f
9:00am 13 30 mph 1006mb 47f
8:00am 13 29 mph 1006mb 46f
7:00am 16 30 mph 1005mb 46f
6:00am 21 36 mph 1005mb 45f
5:00am 15 38 mph 1005mb 48f
4:00am 18 39 mph 1004mb 48f
3:00am 18 36 mph 1005mb 48f
2:00am 16 36 mph 1005mb 48f
1:00am 18 32 mph 1004mb 48f
12:00am 16 31 mph 1003mb 48f
Sat 02/28 11:00pm 16 34 mph 1003mb 49f
10:00pm 17 36 mph 1003mb 51f
9:00pm 17 31 mph 1002mb 51f
8:00pm 16 36 mph 1002mb 51f
7:00pm 22 39 mph 1001mb 51f
6:00pm 25 40 mph 1001mb 51f
5:00pm 23 38 mph 1002mb 50f
4:00pm 26 34 mph 1003mb 50f
3:00pm 17 31 mph 1005mb 49f
2:00pm 16 29 mph 1007mb 49f
1:00pm 14
mph
1008mb 50f
12:00pm 16
mph
1009mb 50f
11:00am 11
mph
1009mb 49f
10:00am 10
mph
1010mb 49f
9:00am 10
mph
1010mb 49f
8:00am 8
mph
1010mb 48f
7:00am 8
mph
1010mb 48f
6:00am 11
mph
1010mb 48f
5:00am 8
mph
1010mb 48f
4:00am 7
mph
1010mb 48f
3:00am 10 22 mph 1011mb 49f
2:00am 16 33 mph 1012mb 49f
1:00am 17 39 mph 1012mb 48f